Regional Weather Roundup
Issued by NWS Charleston, SC

Current Version | Previous Version | Graphics & Text | Print | Product List | Glossary On
Versions: 1 2 3 4 5 6 7 8 9 10 11 12 13 14 15 16 17 18 19 20 21 22 23 24 25 26 27 28 29 30 31 32 33 34 35 36 37 38 39 40 41 42 43 44 45 46 47 48 49 50
000
ASUS42 KCHS 041912
RWRCHS

REGIONAL WEATHER ROUNDUP
NATIONAL WEATHER SERVICE CHARLESTON SC
300 PM EDT TUE AUG 04 2015

NOTE: "FAIR" INDICATES FEW OR NO CLOUDS BELOW 12,000 FEET WITH NO
SIGNIFICANT WEATHER AND/OR OBSTRUCTIONS TO VISIBILITY.

NOT ALL STATIONS ARE QUALITY CONTROLLED BY THE NATIONAL
WEATHER SERVICE. USE DATA WITH CAUTION...ESPECIALLY
DEWPOINT OBSERVATIONS.

SCZ027-030-031-034>040-042>050-042000-
...SOUTHEAST SOUTH CAROLINA...

CITY           SKY/WX    TMP DP  RH WIND       PRES   REMARKS
N CHARLESTON   PTSUNNY   88  74  63 N8        29.96F HX  96
WATERFRONT PRK   N/A     86  76  72 SW5       29.94S HX  96
MOUNT PLEASANT FAIR      88  75  66 W8        29.96F HX  97
JOHNS ISLAND   MOCLDY    88  79  74 S10       29.96F HX 102
PINOPOLIS      NOT AVBL
MONCKS CORNER  FAIR      88  73  62 CALM      29.97S HX  96
SUMMERVILLE    FAIR      90  73  58 CALM      29.97F HX  98
BEAUFORT MCAS  MOSUNNY   90  74  59 CALM      29.97F HX  99
BEAUFORT ARPT  MOCLDY    88  77  70 CALM      29.97F HAZE    HX 100
HILTON HEAD IS MOSUNNY   84  77  79 CALM      30.00S HX  94
WALTERBORO     PTCLDY    91  72  52 W9        29.97F HX  98
ALLENDALE      FAIR      95  68  41 VRB6      29.95F HX  99

...SOUTHERN MIDLANDS AND PEE DEE...

CITY           SKY/WX    TMP DP  RH WIND       PRES   REMARKS
GEORGETOWN     NOT AVBL
KINGSTREE      NOT AVBL
ORANGEBURG     MOSUNNY   94  67  41 VRB7      29.96F HX  97
BARNWELL       FAIR      97  73  46 SW8       29.96F HX 107
AIKEN          FAIR      95  59  30 SW8       30.00F HX  94
MANNING        RAIN      86  72  62 S9        29.95F HX  92
COLUMBIA       MOSUNNY  100  66  32 NW6       29.94F HX 104
SUMTER         MOSUNNY   94  70  44 N5        29.93F HX 100
FLORENCE       MOSUNNY   95  70  44 N10       29.93F HX 101
MYRTLE BEACH   PTSUNNY   84  75  74 NW8       29.94S HX  92
N MYRTLE BEACH CLOUDY    83  77  82 VRB3      29.92R HX  92

$$

GAZ063-065-086>088-099>101-113>116-118-119-134>141-150-042000-
...SOUTHEAST GEORGIA...

CITY           SKY/WX    TMP DP  RH WIND       PRES   REMARKS
SAVANNAH ARPT  MOSUNNY   92  73  53 VRB6      29.98F HX 100
HUNTER AAF     MOSUNNY   91  78  64 VRB2      29.96F HX 106
FORT STEWART   MOSUNNY   97  72  44 VRB3      29.96F HX 105
STATESBORO     MOSUNNY   92  78  64 CALM      29.97F HX 106
SYLVANIA       CLEAR     93  78  59 S5        29.98F HX 108
CLAXTON        NOT AVBL

...CSRA...CENTRAL AND FAR SOUTHEAST GEORGIA...

CITY           SKY/WX    TMP DP  RH WIND       PRES   REMARKS
THOMSON        SUNNY     98  73  43 CALM      30.01F HX 107
AUGUSTA-BUSH   SUNNY     97  64  33 W5        29.94F HX  99
AUGUSTA-DANIEL MOSUNNY   96  67  38 MISG      29.97F HX 100
SWAINSBORO     FAIR      97  72  44 CALM      29.98F HX 105
VIDALIA        SUNNY     93  68  43 CALM      29.98F HX  97
EASTMAN        FAIR      97  73  46 E7        30.00F HX 107
HAZLEHURST     MOCLDY    90  73  57 W5        29.98S HX  97
ALMA           MOSUNNY   94  74  52 E3        29.98F HX 104
WAYCROSS       CLOUDY    80  76  90 SW6       30.00F
JESUP          FAIR      97  75  49 W3        29.98F HX 109
BAXLEY         FAIR      93  72  49 CALM      29.98F HX 100
BRUNSWICK      MOSUNNY   91  73  55 SW3       29.99F HX 100
SAINT SIMONS   MOSUNNY   88  76  67 SE12      29.99F HX  99

$$

SCZ027-028-034-036>038-045-046-048>050-GAZ119-141-042000-
...LAKE AND SUPPLEMENTAL COASTAL OBSERVATIONS...

STATION/POSITION TIME  TEMP    WIND        PRES    WAVE   SWELL
                       AIR SEA DIR/SP/G            HT/PER HT/PER/DIR
                 (UTC) (F)     (DEG/KT/KT) (MB)    (FT/S) (FT/S/D)
UPR LAKE MARION  NOT AVBL
WINYAH BAY       NOT AVBL
LAKE MURRAY      1800   90     190/  8/  9 1013.9F
ACE BASIN NERRS  NOT AVBL
FORT PULASKI     1800   85 84  290/  3/  4 1016.0F
SAPELO ISLAND    1800   88     190/  3     1016.0S

$$

ANZ835-935-AMZ111-154-330-350-352-354-370-450-454-472-042000-
...C-MAN AND BUOY OBSERVATIONS...

STATION/POSITION TIME  TEMP    WIND        PRES    WAVE   SWELL
                       AIR SEA DIR/SP/G            HT/PER HT/PER/DIR
                 (UTC) (F)     (DEG/KT/KT) (MB)    (FT/S) (FT/S/D)
BUOY 41004       1850   81 83  240/ 16/ 17 1014.2F   5/ 7   3/11
BUOY 41008       1850   81 84  220/  6/  8 1015.9F   3/ 7   3/130/ 7
FOLLY BEACH CMAN 1800   83     200/ 11/ 12 1015.3R
CAPERS NEARSHORE 1808   83     250/ 10/ 14 1015.0F
FRIPP NEARSHORE  1800   85     250/  8/ 10 1015.2F


STATION/POSITION TIME  TEMP    WIND        PRES    WAVE   SWELL
                       AIR SEA DIR/SP/G            HT/PER HT/PER/DIR
                 (UTC) (F)     (DEG/KT/KT) (MB)    (FT/S) (FT/S/D)
5E ST. MARYS GA  1821      83                N/A     3/ 5
FRYING PAN BUOY  1850   79 81  200/ 25/ 29 1014.6R  12/ 8
BUOY 41025       1850   82 84  200/ 17/ 19 1016.6R   5/ 5   2/140/11
CAPE LOOKOUT NC  1800   83     190/ 13/ 15 1016.1F
BUOY 41002       1850   83 81  210/ 12/ 14 1019.4R   5/ 7   5/260/ 7
BUOY 41010       1820   81 84  190/  8/  8 1019.0S
ST AUGUSTINE FL  1900   78 78  250/  9/ 13 1017.9R


$$


USA.gov is the U.S. government's official web portal to all federal, state and local government web resources and services.